Location: Newark
(33.2833°N, 8.3333°W)
Time: 19:03:24
(UTC+00:00)

Hubble Space Telescope - Pass Details

Date: 16 September 2019
Orbit: 536 x 540 km, 28.5° (Epoch: 19 October)

Event Time Altitude Azimuth Distance (km) Brightness Sun altitude
Exits shadow 03:39:52 12° 109° (ESE) 1,680 3.7 -32.3°
Drops below altitude 10° 03:40:10 10° 107° (ESE) 1,780 3.9 -32.2°
Sets 03:42:40 0° 95° (E) 2,672 5.1 -31.7°
